Location: Nashville
(36.1660°N, 86.7840°W)
Time: 04:15:34
(UTC-05:00)

CUBESAT XI-V - Visible Passes

Search period start: 16 May 2022 00:00
Search period end: 26 May 2022 00:00
Orbit: 668 x 690 km, 98.1° (Epoch: 15 May)

Date Brightness Start Highest point End Pass type
(mag) Time Alt. Az. Time Alt. Az. Time Alt. Az.
16 May ? 01:34:08 18° ENE 01:34:14 18° ENE 01:37:24 10° NNE visible
16 May ? 03:12:32 33° WNW 03:12:32 33° WNW 03:15:36 10° NNW visible
17 May ? 02:10:04 40° NE 02:10:04 40° NE 02:13:58 10° N visible
17 May ? 03:48:27 15° WNW 03:48:27 15° WNW 03:50:00 10° NW visible
18 May ? 02:46:00 56° NNW 02:46:00 56° NNW 02:49:46 10° NNW visible
19 May ? 01:43:33 23° ENE 01:43:39 23° ENE 01:47:17 10° NNE visible
19 May ? 03:21:57 28° WNW 03:21:57 28° WNW 03:24:56 10° NW visible
20 May ? 02:19:29 50° NE 02:19:29 50° NE 02:23:35 10° N visible
20 May ? 03:57:52 12° WNW 03:57:52 12° WNW 03:58:48 10° WNW visible
21 May ? 01:17:01 12° ENE 01:17:51 12° ENE 01:19:44 10° NE visible
21 May ? 02:55:25 52° NW 02:55:25 52° NW 02:59:13 10° NNW visible
22 May ? 01:52:57 28° ENE 01:53:04 28° ENE 01:57:04 10° NNE visible
22 May ? 03:31:21 23° WNW 03:31:21 23° WNW 03:34:09 10° NW visible
23 May ? 02:28:53 63° NE 02:28:53 63° NE 02:33:09 10° N visible
24 May ? 01:26:25 15° ENE 01:27:13 15° ENE 01:29:57 10° NNE visible
24 May ? 03:04:49 44° WNW 03:04:49 44° WNW 03:08:36 10° NNW visible
25 May ? 02:02:22 35° ENE 02:02:28 35° ENE 02:06:43 10° N visible
25 May ? 03:40:45 19° WNW 03:40:45 19° WNW 03:43:15 10° NW visible
